Tracking 19795 objects as of 18-Jul-2019
HD Live streaming from Space Station
objects crossing your sky now

THORAD AGENA D DEB

Track THORAD AGENA D DEB now!
10-day predictions


NORAD ID: 4677
Int'l Code: 1970-025BA
Perigee: 1,045.6 km
Apogee: 1,058.5 km
Inclination: 100.1 °
Period: 106.1 minutes
Semi major axis: 7423 km
RCS: 0.0681 m2 (small)
Launch date: April 8, 1970
Source: United States (US)
Launch site: AIR FORCE WESTERN TEST RANGE (AFWTR)

Note: This is SATELLITE DEBRIS
aabbcc
Your satellite tracking list
Your tracking list is empty




NASA's NSSDC Master Catalog

Two Line Element Set (TLE):
1  4677U 70025BA  19199.12160212 -.00000003  00000-0  61457-4 0  9993
2  4677 100.0954 242.9996 0008684 328.4472  92.2373 13.57479565436205
Source of the keplerian elements: AFSPC